Mount Sterling, KY

2:27 AM EST on February 06, 2016 (GMT -0500)
Mount Sterling-Montgomery County

Weather History for KIOB - May, 2014

Change the Weather History Date:

Tuesday, May 6, 2014

  Actual Average Record
Temperature  
Mean Temperature 66 °F -  
Max Temperature 78 °F 72 °F 84 °F (2015)
Min Temperature 53 °F 48 °F 51 °F (2013)
Growing Degree Days 16 (Base 50)    
Moisture  
Dew Point 54 °F    
Average Humidity 59    
Maximum Humidity 77    
Minimum Humidity 50    
Precipitation  
Precipitation 0.00 in - - ()
Sea Level Pressure  
Sea Level Pressure 29.93 in    
Wind  
Wind Speed 4 mph (East)    
Max Wind Speed 8 mph    
Max Gust Speed -    
Visibility 10 miles    
Events      
Averages and records for this station are not official NWS values.
T = Trace of Precipitation, MM = Missing Value Source: NWS Daily Summary

Daily Weather History Graph

Daily Weather History Graph

Search for Another Location

Airport or City:

Trip Planner

Search our weather history database for the weather conditions in past years. The results will help you decide how hot, cold, wet, or windy it might be!

Date:

Astronomy

May. 06, 2014 Rise Set
Actual Time 6:34 AM EDT 8:31 PM EDT
Civil Twilight 6:05 AM EDT 9:00 PM EDT
Nautical Twilight 5:30 AM EDT 9:35 PM EDT
Astronomical Twilight 4:52 AM EDT 10:13 PM EDT
Moon 12:48 PM EDT 1:51 AM EDT
Length of Visible Light 14h 55m
Length of Day
13h 57m
Waxing Crescent, 46% of the Moon is Illuminated
May 6
Waxing Crescent
May 6
First Quarter
May 14
Full
May 21
Last Quarter
May 28
New

Hourly Weather History & Observations

Time (EDT) Temp. Dew Point Humidity Pressure Visibility Wind Dir Wind Speed Gust Speed Precip Events Conditions
12:15 AM 60.8 °F 48.2 °F 63% 29.88 in 10.0 mi East 5.8 mph - N/A   Clear
12:35 AM 59.0 °F 46.4 °F 63% 29.88 in 10.0 mi ESE 4.6 mph - N/A   Clear
12:55 AM 60.8 °F 46.4 °F 59% 29.88 in 10.0 mi ESE 3.5 mph - N/A   Clear
1:15 AM 59.0 °F 46.4 °F 63% 29.89 in 10.0 mi East 5.8 mph - N/A   Clear
1:35 AM 59.0 °F 46.4 °F 63% 29.88 in 10.0 mi SE 3.5 mph - N/A   Clear
1:55 AM 59.0 °F 46.4 °F 63% 29.88 in 10.0 mi East 3.5 mph - N/A   Clear
2:15 AM 59.0 °F 46.4 °F 63% 29.88 in 10.0 mi Calm Calm - N/A   Clear
2:35 AM 55.4 °F 48.2 °F 77% 29.88 in 10.0 mi ENE 4.6 mph - N/A   Clear
2:55 AM 55.4 °F 46.4 °F 72% 29.88 in 10.0 mi East 3.5 mph - N/A   Clear
3:15 AM 55.4 °F 46.4 °F 72% 29.88 in 10.0 mi SE 3.5 mph - N/A   Clear
3:35 AM 55.4 °F 46.4 °F 72% 29.88 in 10.0 mi Calm Calm - N/A   Clear
7:55 AM 53.6 °F 46.4 °F 77% 29.95 in 10.0 mi East 4.6 mph - N/A   Clear
8:15 AM 55.4 °F 46.4 °F 72% 29.96 in 10.0 mi East 5.8 mph - N/A   Clear
8:35 AM 55.4 °F 46.4 °F 72% 29.96 in 10.0 mi East 5.8 mph - N/A   Clear
8:55 AM 57.2 °F 46.4 °F 67% 29.96 in 10.0 mi East 5.8 mph - N/A   Clear
9:15 AM 59.0 °F 48.2 °F 67% 29.96 in 10.0 mi East 6.9 mph - N/A   Clear
10:15 AM 62.6 °F 50.0 °F 63% 29.97 in 10.0 mi East 5.8 mph - N/A   Clear
10:35 AM 64.4 °F 50.0 °F 59% 29.97 in 10.0 mi ESE 3.5 mph - N/A   Clear
10:55 AM 64.4 °F 51.8 °F 64% 29.97 in 10.0 mi South 3.5 mph - N/A   Clear
11:15 AM 68.0 °F 51.8 °F 56% 29.97 in 10.0 mi Calm Calm - N/A   Clear
11:35 AM 69.8 °F 51.8 °F 53% 29.97 in 10.0 mi Calm Calm - N/A   Clear
11:55 AM 69.8 °F 53.6 °F 56% 29.97 in 10.0 mi Calm Calm - N/A   Clear
12:15 PM 71.6 °F 53.6 °F 53% 29.96 in 10.0 mi Calm Calm - N/A   Clear
12:35 PM 71.6 °F 55.4 °F 57% 29.96 in 10.0 mi West 5.8 mph - N/A   Clear
12:55 PM 73.4 °F 55.4 °F 53% 29.95 in 10.0 mi North 3.5 mph - N/A   Clear
1:15 PM 73.4 °F 53.6 °F 50% 29.95 in 10.0 mi NNE 3.5 mph - N/A   Clear
1:35 PM 75.2 °F 55.4 °F 50% 29.95 in 10.0 mi North 3.5 mph - N/A   Clear
1:55 PM 75.2 °F 55.4 °F 50% 29.94 in 10.0 mi NE 4.6 mph - N/A   Clear
2:15 PM 77.0 °F 57.2 °F 50% 29.93 in 10.0 mi North 4.6 mph - N/A   Clear
2:35 PM 77.0 °F 57.2 °F 50% 29.93 in 10.0 mi ENE 3.5 mph - N/A   Clear
2:55 PM 77.0 °F 57.2 °F 50% 29.93 in 10.0 mi NNE 3.5 mph - N/A   Clear
3:15 PM 78.8 °F 59.0 °F 51% 29.92 in 10.0 mi North 3.5 mph - N/A   Clear
3:35 PM 78.8 °F 59.0 °F 51% 29.91 in 10.0 mi NNE 4.6 mph - N/A   Clear
4:15 PM 78.8 °F 59.0 °F 51% 29.91 in 10.0 mi ENE 3.5 mph - N/A   Clear
4:35 PM 78.8 °F 59.0 °F 51% 29.90 in 10.0 mi Calm Calm - N/A   Clear
4:55 PM 78.8 °F 59.0 °F 51% 29.90 in 10.0 mi NE 5.8 mph - N/A   Clear
5:15 PM 78.8 °F 59.0 °F 51% 29.89 in 10.0 mi ENE 3.5 mph - N/A   Clear
5:35 PM 78.8 °F 59.0 °F 51% 29.89 in 10.0 mi East 3.5 mph - N/A   Clear
5:55 PM 78.8 °F 59.0 °F 51% 29.89 in 10.0 mi ENE 3.5 mph - N/A   Clear
6:15 PM 78.8 °F 60.8 °F 54% 29.90 in 10.0 mi East 3.5 mph - N/A   Clear
6:35 PM 78.8 °F 60.8 °F 54% 29.90 in 10.0 mi NE 3.5 mph - N/A   Clear
6:55 PM 78.8 °F 60.8 °F 54% 29.90 in 10.0 mi NE 5.8 mph - N/A   Clear
7:15 PM 77.0 °F 60.8 °F 57% 29.91 in 10.0 mi NE 3.5 mph - N/A   Clear
7:35 PM 77.0 °F 60.8 °F 57% 29.91 in 10.0 mi ENE 4.6 mph - N/A   Clear
7:55 PM 75.2 °F 59.0 °F 57% 29.91 in 10.0 mi ENE 6.9 mph - N/A   Clear
8:15 PM 73.4 °F 59.0 °F 61% 29.92 in 10.0 mi East 5.8 mph - N/A   Clear
8:35 PM 73.4 °F 59.0 °F 61% 29.93 in 10.0 mi ENE 4.6 mph - N/A   Clear
8:55 PM 71.6 °F 59.0 °F 64% 29.93 in 10.0 mi East 4.6 mph - N/A   Clear
9:15 PM 71.6 °F 55.4 °F 57% 29.93 in 10.0 mi ESE 4.6 mph - N/A   Clear
9:35 PM 71.6 °F 55.4 °F 57% 29.93 in 10.0 mi ESE 4.6 mph - N/A   Clear
9:55 PM 71.6 °F 55.4 °F 57% 29.94 in 10.0 mi ESE 5.8 mph - N/A   Clear
10:15 PM 71.6 °F 55.4 °F 57% 29.95 in 10.0 mi SE 5.8 mph - N/A   Clear
10:35 PM 69.8 °F 55.4 °F 60% 29.95 in 10.0 mi SE 6.9 mph - N/A   Clear
10:55 PM 69.8 °F 53.6 °F 56% 29.96 in 10.0 mi SE 8.1 mph - N/A   Clear
11:15 PM 69.8 °F 53.6 °F 56% 29.96 in 10.0 mi SE 8.1 mph - N/A   Clear
11:35 PM 69.8 °F 53.6 °F 56% 29.96 in 10.0 mi SE 8.1 mph - N/A   Clear
11:55 PM 68.0 °F 51.8 °F 56% 29.97 in 10.0 mi SE 6.9 mph - N/A   Clear